Theta_e
331 331 330 331 331 331 331 330 330 331 332 332 335 339 341 342 343 347 351 352 352 356 353 349 350 353 357 358 361 362 360 357 352 350 352 359 360 361 360 359 359 364 364 365
332 331 332 332 331 331 330 330 330 330 330 331 334 338 340 344 346 344 351 351 352 349 350 351 350 350 351 353 356 359 358 359 361 361 363 363 366 367 367 367 366 365 367 367
335 333 333 334 332 332 331 331 331 332 331 333 332 338 343 345 347 349 349 350 351 353 348 347 349 347 347 353 361 365 368 364 361 359 363 359 357 355 357 358 368 369 369 370
335 336 337 333 332 332 332 332 332 332 332 336 338 341 342 342 345 346 347 349 350 347 350 352 348 347 348 349 360 363 368 366 363 357 346 342 337 334 332 331 350 365 369 366
335 335 333 332 331 332 332 332 332 335 334 336 339 339 344 339 340 342 343 343 345 346 347 347 348 348 349 348 354 358 360 364 360 353 351 343 347 346 344 350 355 356 359 361
336 335 336 333 332 334 333 335 332 337 337 338 338 335 341 338 337 337 337 337 337 339 343 346 346 346 347 347 349 351 352 353 354 354 355 353 352 349 349 350 348 346 346 348
334 334 332 329 331 333 332 330 336 338 338 339 338 340 338 335 336 334 334 334 333 334 336 336 336 340 346 349 348 349 350 349 349 348 348 347 346 347 347 346 345 345 345 347
333 333 332 332 333 331 335 337 337 338 337 337 336 335 334 335 334 333 332 332 331 332 332 332 333 333 336 338 342 345 347 346 346 347 346 343 347 348 348 346 347 347 347 345
329 332 337 336 336 337 335 337 337 336 334 333 333 333 332 332 331 330 329 329 329 330 330 330 331 333 334 334 335 337 339 344 346 346 345 345 346 347 344 345 343 339 337 336
333 329 334 335 334 334 334 335 334 333 332 332 331 330 330 330 330 329 329 329 328 329 330 331 331 332 333 334 335 335 336 337 340 345 347 347 344 341 340 338 337 336 336 336
333 333 336 335 335 335 334 332 332 331 331 330 330 330 330 331 331 330 330 330 329 330 329 330 331 332 333 333 334 335 335 335 335 335 339 343 344 342 339 338 337 335 335 336
329 330 334 331 334 334 334 333 332 331 330 330 330 331 331 332 330 330 330 329 329 329 329 330 330 331 332 334 335 335 334 333 332 332 332 333 338 344 342 338 339 337 330 331
330 331 330 333 332 333 333 333 333 331 329 330 329 329 329 329 328 328 327 328 328 328 328 328 329 330 332 334 335 335 335 334 333 332 331 331 331 335 341 342 339 334 329 329
330 332 332 331 329 332 332 332 329 328 327 327 328 329 328 328 327 326 326 327 326 325 325 326 326 328 330 333 335 335 335 334 333 332 332 331 330 330 332 338 342 339 336 335
331 331 330 332 332 332 330 330 330 329 329 330 328 327 326 326 326 325 325 325 324 324 324 325 326 326 328 330 333 334 334 334 333 333 333 333 333 333 331 333 338 340 336 336
330 331 331 332 331 330 330 331 331 330 328 324 323 323 323 323 324 324 324 324 324 324 324 325 325 326 326 326 329 332 333 333 333 333 333 333 334 334 333 332 336 338 337 336
334 335 333 332 332 332 329 325 324 324 324 323 323 324 324 324 324 325 325 325 325 326 325 326 326 326 326 326 329 331 333 333 332 332 333 334 334 334 333 333 335 336 336 336
332 332 330 328 327 325 324 323 323 324 325 324 325 326 326 326 328 327 327 326 326 326 326 326 326 326 326 328 330 332 334 334 333 334 334 334 336 337 337 336 338 337 336 335
331 328 326 324 324 323 322 323 324 324 325 325 325 325 324 323 323 323 324 325 325 326 326 325 325 326 328 329 329 330 331 331 331 332 333 333 335 337 337 338 337 338 334 339
328 326 324 322 322 323 324 325 327 326 325 325 324 325 323 322 321 322 324 325 325 325 327 328 327 327 329 329 329 328 328 328 328 329 330 331 333 335 337 336 337 335 338 338
326 323 321 322 323 323 324 325 326 327 327 325 324 324 323 323 323 324 325 327 328 329 328 327 327 326 323 319 317 317 317 317 318 319 324 330 331 331 335 335 335 335 338 334
322 321 321 322 323 323 323 323 325 328 326 325 325 326 326 327 327 327 328 329 329 328 324 324 320 316 314 314 313 314 314 315 315 317 318 322 330 331 334 335 335 336 331 325
322 322 322 323 323 323 323 324 326 328 327 326 326 326 325 325 325 329 330 328 326 320 322 319 313 311 311 310 310 310 310 311 312 314 317 319 329 331 333 334 333 328 323 316
324 324 324 324 323 323 326 325 327 328 328 328 327 326 323 326 328 329 329 324 319 321 319 315 311 310 309 309 309 308 310 316 323 316 319 320 331 332 334 329 324 320 315 311
326 324 323 322 325 325 326 327 326 325 327 329 328 328 327 328 329 328 326 323 321 320 317 315 313 312 309 308 308 307 311 319 322 322 322 325 331 329 324 320 315 311 308 306
323 323 324 325 326 326 325 325 324 324 325 325 328 328 328 329 329 322 321 321 321 321 316 314 312 312 310 308 308 307 307 311 316 319 320 320 318 316 313 310 309 308 306 305
322 322 324 325 325 326 325 324 324 324 324 324 323 324 328 329 324 318 320 321 320 319 316 313 313 314 310 308 307 307 306 306 308 310 310 310 310 309 308 307 306 305 304 303
Wind_Speed
2 2 5 7 8 8 9 7 7 5 6 7 7 10 11 12 12 5 6 5 6 4 4 6 8 6 3 2 3 7 10 13 15 13 13 15 14 13 16 18 21 20 21 22
7 5 7 10 10 11 11 6 8 8 10 2 4 7 9 11 12 6 6 4 4 5 7 8 7 6 3 2 5 8 12 13 14 15 12 10 7 8 12 16 17 17 19 21
11 6 7 13 15 14 13 11 9 11 6 7 11 6 8 9 9 8 6 5 2 3 8 9 8 5 2 1 4 5 8 6 11 13 9 9 8 3 7 20 20 20 18 19
9 5 15 14 3 7 13 14 13 12 11 3 5 2 5 7 7 8 8 7 5 4 3 5 11 10 2 1 1 1 2 4 9 11 11 9 5 14 12 42 47 15 13 14
8 12 15 8 6 9 13 16 15 13 10 7 5 5 6 8 7 8 8 9 10 9 7 4 3 9 10 6 3 3 4 7 8 9 13 10 5 4 18 32 19 10 13 10
6 12 13 10 6 4 7 16 13 10 10 8 7 10 7 7 8 7 9 10 11 11 9 8 6 0 4 6 7 7 7 9 10 10 10 12 13 14 18 18 13 8 9 11
10 11 10 4 6 3 11 7 6 7 4 5 7 4 4 6 6 7 8 9 9 8 7 8 8 7 3 6 7 7 8 6 11 13 14 15 14 14 13 12 10 8 10 10
10 13 18 6 5 10 3 2 5 5 4 3 3 2 3 5 7 9 11 11 12 11 10 8 6 6 6 6 7 10 12 12 13 14 15 15 16 16 16 14 11 9 10 11
5 3 2 2 6 3 2 4 4 5 4 1 1 2 4 5 6 9 11 13 14 14 14 12 10 8 10 10 10 11 11 14 17 17 18 18 18 17 16 16 14 12 10 10
4 9 5 4 5 5 5 4 4 2 2 2 3 4 6 7 8 10 12 14 14 15 16 17 15 15 15 16 14 14 16 17 17 20 22 22 21 21 20 20 17 16 13 11
9 5 4 8 10 8 7 5 5 3 2 3 3 5 7 8 9 12 14 15 16 16 18 20 21 19 19 19 18 19 18 19 21 23 24 26 27 28 26 26 23 18 16 13
8 1 8 8 8 12 10 9 7 6 5 5 5 7 9 9 13 14 16 18 20 20 21 22 23 24 23 21 20 21 21 21 21 23 25 27 29 29 33 35 27 28 22 20
6 4 8 2 2 6 12 10 7 7 7 7 9 11 13 14 17 17 19 20 20 21 23 25 26 26 25 23 22 22 23 23 22 22 25 27 29 30 29 29 33 35 32 26
4 5 5 7 6 3 5 6 5 10 10 12 14 16 17 18 20 21 21 21 21 22 25 27 29 30 27 26 24 24 25 26 25 25 25 26 28 31 32 30 29 26 29 25
8 7 5 2 2 4 5 6 7 10 11 14 17 19 20 20 21 22 23 23 25 26 27 28 29 29 29 28 28 27 26 27 27 27 26 26 27 29 33 33 33 32 24 15
9 7 5 5 3 4 5 7 10 12 13 17 18 20 22 24 26 27 27 27 27 27 29 30 31 32 32 32 30 30 30 27 28 29 30 29 28 29 30 32 32 31 30 24
7 7 6 5 5 4 7 8 10 12 16 18 20 23 25 26 28 29 30 31 31 31 32 33 35 34 33 31 31 30 26 27 27 26 26 29 28 29 28 28 32 32 29 23
5 5 3 3 5 8 9 12 15 18 18 22 23 25 26 26 23 28 30 31 31 33 33 33 33 32 30 30 31 31 30 29 29 29 29 25 28 27 26 27 29 30 25 13
4 2 3 6 9 11 14 16 17 19 20 20 21 22 21 22 24 26 26 25 28 28 29 25 26 29 30 31 31 32 32 32 31 31 30 28 27 27 26 26 28 26 21 12
1 2 6 9 12 13 15 16 18 18 19 20 23 24 22 22 23 22 23 24 26 27 27 26 27 30 32 33 31 30 30 32 33 35 34 32 28 27 25 28 30 20 13 13
3 5 8 9 11 13 15 16 18 19 20 20 19 18 20 23 22 20 21 16 23 23 25 28 25 25 28 32 32 31 32 33 34 34 31 33 31 31 27 28 27 18 15 15
5 7 9 11 13 15 16 18 19 18 17 16 16 17 18 21 20 20 19 14 15 19 21 21 26 30 32 33 31 30 30 32 33 32 31 29 34 30 28 25 19 19 24 19
7 10 12 14 16 18 21 20 18 17 17 18 16 17 16 18 19 15 11 14 15 18 16 22 28 32 29 25 26 28 30 32 31 30 28 27 25 29 25 20 20 25 26 25
11 14 16 18 19 20 17 17 16 16 18 19 16 16 16 17 16 12 10 7 11 12 18 24 26 27 27 27 27 29 28 25 17 25 25 27 26 27 18 28 27 26 29 32
13 16 17 17 16 13 14 14 14 16 16 20 15 11 13 12 10 8 2 3 10 10 19 29 32 32 29 29 28 29 26 21 14 17 19 17 21 24 28 29 31 32 32 33
13 14 14 13 13 14 12 13 15 16 15 16 18 12 10 6 0 1 0 4 7 10 16 20 33 35 31 31 30 32 34 33 33 34 34 32 32 32 32 34 34 34 35 35
12 11 10 12 12 11 13 13 14 14 14 13 15 16 12 5 3 1 0 4 8 11 11 15 23 36 34 32 31 34 35 38 36 37 36 35 35 35 35 35 35 37 40 41
Wind_Direction
283 161 209 242 228 220 265 293 273 31 277 296 0 348 348 343 353 9 50 66 97 111 108 122 121 118 150 203 214 249 239 228 225 237 253 254 245 253 256 254 259 252 246 245
197 191 233 249 251 257 251 268 267 277 278 24 321 343 353 360 4 12 28 53 113 147 153 143 131 125 132 277 282 275 259 252 241 225 222 229 238 250 262 261 255 246 245 243
235 199 248 251 251 248 248 235 259 271 312 353 311 339 357 5 7 30 22 29 72 168 187 174 172 160 135 36 330 306 299 267 212 201 174 223 184 218 290 300 257 241 241 246
260 180 239 260 12 279 267 251 257 263 281 321 303 29 42 25 24 28 30 31 48 64 155 190 201 196 188 208 167 304 245 194 192 195 197 210 223 46 21 336 278 245 238 247
238 232 252 224 224 239 241 255 248 255 264 251 255 238 130 55 39 37 36 30 29 35 64 62 217 220 224 226 202 193 215 211 217 232 252 265 262 217 203 240 270 262 273 280
195 256 264 288 41 56 282 263 233 220 241 246 244 247 81 53 44 33 39 36 24 29 40 52 30 252 220 216 217 229 228 230 227 225 223 233 238 226 222 233 252 265 258 259
231 249 270 289 130 157 234 280 104 202 205 237 249 13 49 28 29 13 16 17 14 18 34 22 12 3 309 275 267 274 286 253 225 227 233 232 237 242 245 247 262 271 282 282
244 274 266 121 151 233 358 111 149 159 151 130 105 86 34 5 354 351 353 355 355 354 355 353 348 337 325 306 299 279 274 271 243 233 228 232 227 236 241 244 245 257 266 282
227 352 79 201 274 323 271 170 166 177 137 86 305 22 351 345 347 345 343 341 339 337 330 329 328 321 305 295 291 283 273 262 254 252 249 246 238 238 241 242 254 253 260 280
206 212 214 205 205 203 205 168 162 171 202 265 318 335 329 333 334 328 326 326 325 321 317 313 316 309 299 294 287 274 268 263 259 249 243 243 242 244 245 249 246 253 257 267
234 220 206 229 228 209 204 199 211 196 233 281 304 306 315 311 313 312 311 310 311 306 301 300 302 299 296 292 287 282 275 266 260 256 250 244 240 243 241 246 247 247 258 259
248 299 223 281 220 210 215 214 221 229 222 233 271 294 304 303 306 303 302 303 301 298 296 294 294 294 295 290 285 281 280 274 268 264 258 252 248 244 244 242 242 244 240 248
269 253 241 180 222 210 219 224 230 236 242 269 282 292 296 296 294 295 292 290 292 295 294 292 289 287 288 286 283 281 275 276 275 270 266 263 260 253 247 238 243 246 247 242
196 167 202 221 248 202 239 223 212 255 269 276 287 292 290 290 290 287 284 285 286 288 288 287 284 281 282 284 282 281 279 274 268 269 267 266 261 257 254 246 238 224 240 234
207 215 282 29 214 216 230 241 253 267 280 287 290 291 290 287 284 281 281 282 281 282 283 285 284 285 282 279 281 281 276 275 274 271 266 264 267 266 255 249 245 241 231 202
196 206 200 210 192 226 245 266 277 288 297 298 296 292 289 286 284 282 281 280 278 281 287 287 286 284 283 276 274 277 276 274 272 272 270 267 263 257 255 253 244 235 229 228
175 181 194 211 226 275 300 306 299 296 296 290 288 289 289 288 286 282 280 281 281 282 285 285 281 284 284 276 272 275 274 268 267 265 263 263 262 256 251 247 247 231 224 220
100 93 66 8 316 308 305 304 297 292 291 294 294 292 289 289 290 291 290 290 289 287 284 283 285 285 279 274 273 272 267 263 265 261 258 250 251 250 251 241 243 228 222 158
122 74 353 329 316 307 300 296 294 292 289 290 292 293 296 295 292 292 295 292 286 286 288 292 293 293 286 280 274 269 263 260 257 254 255 250 245 243 238 228 231 228 221 163
158 319 318 309 306 302 299 297 296 293 295 295 295 299 296 293 294 294 290 288 291 288 293 299 298 292 288 284 280 276 274 269 263 256 243 237 235 235 229 222 224 222 181 186
276 295 301 303 309 306 299 297 298 295 299 302 301 301 298 297 300 298 293 294 302 313 311 307 305 308 301 295 287 277 269 264 260 256 260 225 227 229 227 226 217 215 173 167
293 301 303 303 303 301 308 306 299 293 287 295 302 305 308 305 311 303 296 310 317 321 326 325 317 310 308 306 294 280 271 265 257 248 240 252 211 211 220 216 212 167 159 161
286 293 294 294 298 302 304 303 300 291 285 293 298 298 294 300 296 306 318 323 331 342 350 333 332 325 320 320 310 299 286 273 256 237 231 221 218 199 205 206 159 151 155 151
291 293 292 295 298 298 298 300 306 302 297 293 283 280 287 299 301 319 315 355 7 22 3 357 348 341 346 340 331 326 314 302 255 197 196 203 185 179 170 144 139 144 145 141
295 299 297 295 298 298 310 312 307 303 303 298 286 269 281 287 310 288 288 13 27 23 17 11 10 3 1 359 359 357 7 37 110 138 162 187 157 136 130 133 134 132 130 131
306 309 308 306 300 299 301 308 303 303 298 295 294 288 283 316 0 233 154 17 23 22 16 6 14 14 14 15 19 24 33 43 63 76 88 97 106 106 112 117 119 119 122 126
310 306 301 306 304 325 319 305 303 306 305 295 283 288 301 322 127 168 346 33 31 28 17 8 25 30 29 30 34 40 44 52 64 74 80 85 92 99 103 105 109 115 118 118